SCP
-0 0 -0 -0 -0 -0 -0 -0 -1 -1 -0 -1 -1 -1 -1 -1 -0 -0 -0 -0 -0 -0 -0 0 0 -0 -0 -0 -0 -0 -0 -0 -0 -0 -0 -0 -0 -0 0 0 0 0 0
-0 -0 -0 -0 -0 -0 -0 -0 -0 -0 -0 -1 -1 -1 -0 -0 -0 -0 -0 -0 -0 -0 -0 0 -0 -0 -0 -0 -0 -0 -0 -0 -0 -0 -0 -0 -0 -0 0 0 0 0 0
-0 -0 -0 -0 -0 -0 -0 -0 -0 -0 -0 -0 -0 -0 -0 -0 -0 -0 -0 -0 -0 -0 -0 -0 -0 0 -0 0 -0 -0 -0 -0 -0 -0 -0 0 0 -0 -0 -0 -0 0 0
0 -0 -0 -0 -0 -0 -0 -0 -0 -0 -0 -0 -0 -0 -0 -0 -0 -0 -0 0 -0 -0 -0 -0 0 -0 0 0 -0 0 -0 -0 -0 0 0 0 0 -0 -0 -0 0 -0 0
0 0 -0 -0 -0 -0 -0 -0 -0 -0 -0 -0 -0 -0 -0 -0 -0 -0 -0 -0 -0 -0 -0 0 -0 -0 -0 -0 0 -0 0 -0 -0 0 0 0 0 -0 -0 -0 -0 0 0
0 0 0 -0 -0 -0 -0 -0 -0 -0 -0 -0 -0 -0 -0 -0 -0 -0 -0 -0 -0 -0 0 0 -0 -0 -0 -0 0 0 0 0 0 -0 0 0 0 -0 -0 -0 -0 -0 0
0 0 0 -0 -0 -0 -0 -0 -0 -0 -0 -0 -0 -0 -0 -0 -0 0 -0 -0 -0 -0 -0 -0 -0 0 -0 -0 0 0 0 0 0 0 0 0 0 -0 -0 -0 -0 -0 -0
0 0 0 -0 -0 -0 -0 -0 -0 -0 -0 -0 -0 -0 -0 -0 -0 -0 -0 -0 -0 -0 -0 -0 -0 0 -0 -0 0 0 0 0 0 0 0 0 0 -0 -0 -0 -0 -0 -0
1 0 0 0 -0 -0 -0 -0 -0 -0 -0 -0 -0 -0 -0 -0 -0 -0 -0 -0 -0 -0 -0 -0 -0 -0 -0 -0 -0 -0 0 0 0 0 0 0 -0 -0 -0 -0 -0 -0 -0
1 -0 0 0 -0 0 0 -0 -0 -0 -0 -0 -0 -0 -0 -0 -0 -0 0 0 -0 -0 -0 -0 -0 -0 -0 -0 0 -0 -0 0 0 0 0 -0 -0 -0 -0 -0 -0 -0 -0
1 1 0 0 0 0 -0 0 0 -0 -0 -0 -0 -0 -0 0 -0 0 0 0 0 -0 -0 -0 -0 0 0 -0 0 0 -0 -0 -0 -0 -0 -0 -0 -0 -0 -0 -0 -0 -0
0 0 0 0 0 0 0 0 -0 -0 -0 -0 0 0 0 0 0 0 -0 -0 -0 -0 0 -0 -0 -0 0 0 0 0 0 0 0 0 0 -0 -0 -0 -0 -0 -0 -0 -0
0 0 0 0 0 0 0 0 -0 -0 -0 -0 -0 0 0 0 0 0 0 0 -0 -0 0 0 0 0 0 0 0 0 0 0 0 0 -0 0 0 -0 -0 -0 -0 -0 -0
0 0 0 0 0 0 0 0 -0 -0 -0 -0 -0 -0 0 0 0 0 0 0 0 0 0 0 0 0 0 0 0 0 0 0 0 0 0 -0 0 0 0 0 -0 -0 -0
0 0 0 0 0 0 0 0 -0 0 -0 -0 -0 -0 0 0 0 0 0 0 0 0 0 0 0 0 0 0 0 0 0 0 0 0 0 0 0 0 0 0 -0 -0 0
0 0 0 0 0 0 0 -0 0 -0 -0 -0 -0 -0 0 0 0 0 0 0 0 0 0 0 0 0 0 0 0 0 0 0 0 0 0 0 0 0 0 0 0 0 0
0 0 0 0 0 0 -0 -0 -0 0 -0 -0 -0 0 0 0 0 0 0 0 0 0 0 0 0 0 0 0 0 0 0 0 0 0 0 0 0 -0 0 0 0 0 0
0 0 0 0 0 0 0 0 0 -0 -0 -0 -0 0 -0 0 0 0 0 0 0 0 0 0 0 0 0 0 0 0 0 0 0 0 0 0 0 0 0 0 0 0 0
0 0 0 0 0 0 0 0 0 0 -0 0 0 0 0 0 0 0 0 0 0 0 0 0 0 0 0 0 0 0 0 0 0 0 0 0 0 0 0 0 0 0 0
0 0 0 0 0 0 0 0 0 0 0 0 0 0 0 0 0 0 0 0 0 0 0 0 0 0 0 0 0 0 0 0 0 0 0 0 0 0 0 0 0 0 0
0 0 0 0 0 0 0 0 0 0 0 0 0 0 0 0 0 0 0 0 0 0 0 0 0 0 0 0 0 0 0 0 0 0 0 0 0 0 0 0 0 0 0
0 0 0 0 0 0 0 0 0 0 -0 0 0 0 0 0 0 0 0 0 0 0 0 0 0 0 0 0 0 0 0 0 0 0 0 0 0 0 0 0 0 0 0
0 0 0 0 0 0 0 0 0 0 -0 -0 -0 -0 0 0 0 0 0 0 0 0 0 0 0 0 0 0 0 0 0 0 0 0 0 0 0 0 0 0 0 0 0
0 0 0 0 0 0 0 0 0 0 0 0 0 0 0 0 0 0 0 0 0 0 0 0 0 0 0 0 0 0 0 0 0 0 0 0 0 0 0 0 0 0 0
0 0 0 0 0 0 0 0 0 0 0 0 0 0 0 0 0 0 0 0 0 0 0 0 0 0 0 0 0 0 0 0 0 0 0 0 0 0 0 0 0 0 0
0 0 1 0 1 0 0 0 0 0 0 0 0 0 0 0 0 0 0 0 0 0 0 0 0 0 0 0 0 0 0 0 0 0 0 0 0 0 0 0 0 0 0
Wind_Speed_500mb
35 35 35 33 32 35 36 36 38 35 34 36 37 37 36 32 27 22 23 24 25 24 23 22 19 19 20 21 20 15 21 26 33 27 33 31 32 29 28 30 28 27 26
40 37 36 33 34 35 34 36 37 37 34 34 32 32 31 29 28 27 22 24 25 22 20 20 22 22 23 22 23 23 30 28 32 32 29 29 27 24 30 29 24 26 29
38 37 34 34 32 32 32 34 36 36 35 33 32 36 34 31 30 30 30 26 25 23 22 22 23 22 23 26 27 31 30 32 31 27 26 24 25 22 26 27 24 26 30
34 34 34 32 29 29 30 32 34 34 34 33 31 31 29 26 28 27 25 26 27 24 23 23 22 19 23 29 31 35 34 33 34 30 25 22 20 18 20 23 23 26 27
33 31 31 31 29 28 28 29 29 29 29 29 28 27 26 29 33 27 26 29 25 24 23 22 21 22 26 32 34 36 35 33 32 30 28 24 18 18 14 15 19 20 21
27 26 27 29 30 30 31 31 29 28 27 26 26 26 26 26 23 19 21 23 21 20 22 22 23 27 32 33 34 31 25 24 30 26 24 21 16 15 11 12 14 16 18
25 24 26 27 28 30 30 30 29 27 27 26 26 24 22 22 21 19 18 20 18 18 18 23 24 28 34 36 32 28 24 23 23 19 20 19 15 10 10 9 11 13 16
27 25 27 26 26 27 29 28 28 28 27 25 24 27 25 21 21 20 18 17 18 18 19 19 26 28 32 34 29 26 22 20 18 19 16 12 10 9 7 8 8 10 12
23 24 25 26 27 28 29 30 30 30 31 28 25 23 25 25 20 18 17 16 17 17 18 18 22 25 28 31 31 28 25 16 15 10 9 10 6 10 3 6 7 9 10
30 23 17 26 27 31 31 31 31 31 30 29 27 25 24 25 24 21 18 18 18 17 16 18 19 23 26 28 32 28 26 21 14 7 13 10 5 4 1 6 7 9 11
34 30 29 27 30 34 34 32 32 33 31 29 28 27 26 25 24 22 21 20 20 18 15 16 17 21 25 27 31 33 30 24 18 14 12 9 9 2 0 4 8 9 11
40 38 29 19 39 41 37 35 34 32 33 32 29 29 26 24 21 20 21 21 21 19 16 15 16 17 23 27 29 33 31 25 22 18 9 10 8 7 5 5 8 11 11
36 35 29 28 20 49 44 38 34 35 34 33 33 33 30 29 28 25 24 20 18 21 21 18 17 17 18 27 30 32 32 29 27 21 13 10 9 10 7 7 11 12 14
38 24 23 18 31 46 54 40 32 32 30 36 38 35 33 31 31 26 26 16 17 20 19 19 16 16 17 22 29 29 30 31 31 28 20 14 16 18 14 11 12 14 14
30 31 22 25 24 49 46 32 40 42 34 44 42 34 32 34 29 30 27 23 21 19 15 14 15 16 17 19 27 28 24 27 31 30 24 14 8 13 13 17 12 17 19
27 36 29 15 18 26 28 35 46 50 46 51 43 40 29 32 29 26 24 30 29 21 17 13 11 11 13 22 25 25 28 27 27 30 29 23 22 19 20 19 13 14 19
19 20 17 12 16 19 42 27 29 30 39 59 47 44 35 35 30 25 24 27 27 23 21 22 22 21 19 21 29 30 34 33 32 30 30 27 27 26 21 21 22 17 18
17 15 14 14 15 16 21 21 25 24 28 45 49 51 35 32 30 27 29 30 29 27 26 26 26 28 34 26 30 27 34 39 38 34 32 31 26 24 24 23 22 23 21
12 16 14 17 14 14 8 14 21 23 29 37 40 40 36 34 31 32 31 31 32 32 31 32 28 27 25 33 36 29 35 38 36 36 35 34 35 35 33 33 31 28 28
19 16 21 19 16 13 9 14 12 16 21 28 34 39 37 34 34 33 37 38 39 37 35 32 30 27 24 17 24 26 29 27 27 31 36 41 41 38 39 37 35 37 37
19 18 24 22 18 13 5 8 13 7 11 19 22 37 36 33 30 32 42 48 40 39 30 28 29 25 18 19 24 25 25 23 27 32 30 33 37 42 41 40 42 39 37
21 21 25 23 20 19 11 11 15 18 14 17 20 18 23 24 23 19 17 25 32 33 28 27 23 19 19 17 17 15 11 12 22 28 32 34 36 35 38 37 36 39 37
26 25 26 23 23 21 15 8 8 12 15 16 20 17 16 15 17 17 15 19 20 21 24 23 22 22 20 19 19 17 8 7 8 4 6 10 23 32 33 31 30 31 34
26 25 28 26 23 20 17 11 5 3 9 16 19 18 14 13 12 12 12 16 19 21 21 24 25 24 23 23 24 27 27 23 9 8 1 4 2 10 18 28 20 16 16
20 22 24 23 22 20 20 18 11 7 12 13 15 14 14 13 11 14 17 21 23 23 28 27 24 27 26 25 26 26 26 30 32 27 14 14 4 9 11 15 24 15 15
18 22 25 22 20 17 22 22 12 6 13 13 14 13 11 13 10 11 11 13 16 21 23 22 20 18 17 19 19 22 24 26 31 34 29 16 8 10 10 5 2 7 9
Wind_Direction_500mb
175 174 163 162 159 157 156 151 147 142 137 136 136 138 141 142 138 132 131 128 131 129 133 134 129 132 135 127 131 126 122 120 119 125 114 112 117 112 117 125 124 121 118
163 170 165 162 162 162 160 156 153 151 146 142 137 134 134 134 135 130 133 133 133 128 130 132 124 124 127 130 129 126 118 109 116 118 117 116 120 112 117 121 121 123 122
168 170 165 168 164 163 162 161 161 158 154 151 142 137 136 140 140 140 138 135 136 129 127 126 130 124 128 132 132 127 126 127 124 123 115 113 121 105 115 118 122 123 127
173 168 171 171 168 168 167 167 168 163 161 157 151 148 147 147 142 127 134 138 131 132 128 131 128 130 132 136 136 131 131 123 124 117 115 114 113 100 107 117 123 120 129
175 174 174 175 175 175 174 173 173 170 166 162 153 152 151 144 138 133 117 138 132 137 134 133 139 133 137 142 141 139 133 124 122 111 107 97 95 97 99 128 123 134 134
172 178 183 186 181 183 180 180 179 179 176 171 166 162 160 158 158 151 146 143 133 132 140 136 136 139 141 145 146 140 136 132 145 115 112 100 84 85 99 126 131 137 140
167 179 193 196 191 189 187 184 186 185 187 181 173 171 169 164 160 161 164 160 152 143 135 138 138 148 148 153 154 149 138 135 134 129 120 104 82 81 109 127 131 139 143
164 176 190 199 203 198 193 189 190 190 192 193 187 178 176 179 172 167 168 162 155 155 150 147 143 156 159 166 166 162 155 146 139 140 125 114 97 94 117 150 159 158 155
166 179 191 198 207 209 205 197 193 194 192 197 198 193 181 179 179 169 167 162 157 159 159 161 154 157 167 172 182 169 161 164 154 142 133 132 105 82 141 166 179 184 174
177 186 217 205 213 216 216 211 200 198 198 196 199 198 192 181 176 175 174 167 166 167 168 165 164 163 168 179 182 186 177 174 180 192 157 141 128 74 161 205 200 210 205
195 194 206 213 223 224 221 219 211 203 203 203 201 199 196 190 182 178 175 170 167 173 170 170 167 173 173 181 187 190 186 181 180 166 170 181 190 165 17 221 223 223 228
201 196 203 211 255 227 221 221 219 213 207 206 205 199 196 197 192 185 179 180 173 171 173 177 168 173 178 183 188 190 189 194 191 189 182 195 203 247 229 241 244 238 246
203 205 211 240 329 233 219 215 223 218 213 207 204 203 196 196 191 189 182 184 191 184 180 180 181 178 183 184 190 195 198 203 211 209 225 234 234 234 255 244 249 242 246
213 212 225 241 267 237 218 209 209 233 225 218 209 205 200 197 203 201 200 198 199 195 191 188 191 196 194 191 191 192 199 204 213 224 233 236 260 247 241 244 255 248 246
230 222 240 304 280 229 205 204 212 215 231 230 218 208 208 203 205 207 212 222 207 195 198 207 201 207 196 182 186 186 193 205 208 215 233 258 260 248 267 239 255 263 246
261 238 259 289 58 174 220 218 211 221 231 228 217 214 224 213 212 221 228 211 208 209 205 211 218 231 233 227 215 204 208 211 212 223 237 239 251 245 251 244 261 279 256
214 223 247 179 115 134 193 205 225 241 252 223 225 229 231 229 224 222 209 206 217 224 232 234 246 257 256 251 238 245 217 210 215 223 237 243 244 244 253 251 259 276 280
217 222 191 167 180 173 181 214 235 237 234 227 240 238 238 216 225 219 220 220 229 234 235 240 255 271 259 250 232 240 225 220 230 239 244 245 248 242 253 263 262 275 280
175 184 170 157 159 176 209 252 259 252 239 222 227 223 211 220 226 231 236 232 232 233 240 253 264 271 263 259 237 248 240 238 237 241 244 253 253 255 251 250 253 266 270
162 176 171 165 171 160 240 282 282 267 236 216 211 215 212 222 238 242 239 237 240 243 247 259 265 260 259 241 234 246 241 241 244 251 256 258 255 252 253 252 256 267 261
168 182 175 169 170 156 143 83 51 26 205 208 215 217 213 228 235 245 249 242 237 242 253 260 244 248 249 239 243 252 250 252 255 252 254 250 247 248 255 261 257 258 259
181 183 178 170 165 161 148 94 74 65 110 172 194 202 213 219 226 227 216 208 226 240 241 239 242 247 240 236 246 261 266 247 249 251 252 250 251 247 249 256 256 255 259
183 182 181 178 173 174 180 131 88 86 96 113 168 189 191 220 218 205 201 209 213 219 225 231 235 237 238 246 248 243 244 217 190 206 233 255 246 246 248 254 260 259 259
191 181 179 175 175 178 186 173 221 175 140 143 149 162 183 189 197 215 209 224 227 227 228 238 240 240 241 234 246 249 244 234 225 217 250 68 319 246 241 245 249 243 218
199 189 188 179 179 188 199 196 218 231 175 172 176 191 209 217 212 254 246 246 249 245 236 236 243 236 241 245 247 246 239 235 237 237 238 255 203 219 232 245 228 250 228
190 204 210 199 191 200 210 220 244 208 193 195 186 192 206 215 264 264 248 246 249 240 235 233 223 224 227 237 245 246 238 235 235 223 211 201 195 131 137 160 198 201 210
Wind_Speed_850mb
35 35 35 33 32 35 36 36 38 35 34 36 37 37 36 32 27 22 23 24 25 24 23 22 19 19 20 21 20 15 21 26 33 27 33 31 32 29 28 30 28 27 26
40 37 36 33 34 35 34 36 37 37 34 34 32 32 31 29 28 27 22 24 25 22 20 20 22 22 23 22 23 23 30 28 32 32 29 29 27 24 30 29 24 26 29
38 37 34 34 32 32 32 34 36 36 35 33 32 36 34 31 30 30 30 26 25 23 22 22 23 22 23 26 27 31 30 32 31 27 26 24 25 22 26 27 24 26 30
34 34 34 32 29 29 30 32 34 34 34 33 31 31 29 26 28 27 25 26 27 24 23 23 22 19 23 29 31 35 34 33 34 30 25 22 20 18 20 23 23 26 27
33 31 31 31 29 28 28 29 29 29 29 29 28 27 26 29 33 27 26 29 25 24 23 22 21 22 26 32 34 36 35 33 32 30 28 24 18 18 14 15 19 20 21
27 26 27 29 30 30 31 31 29 28 27 26 26 26 26 26 23 19 21 23 21 20 22 22 23 27 32 33 34 31 25 24 30 26 24 21 16 15 11 12 14 16 18
25 24 26 27 28 30 30 30 29 27 27 26 26 24 22 22 21 19 18 20 18 18 18 23 24 28 34 36 32 28 24 23 23 19 20 19 15 10 10 9 11 13 16
27 25 27 26 26 27 29 28 28 28 27 25 24 27 25 21 21 20 18 17 18 18 19 19 26 28 32 34 29 26 22 20 18 19 16 12 10 9 7 8 8 10 12
23 24 25 26 27 28 29 30 30 30 31 28 25 23 25 25 20 18 17 16 17 17 18 18 22 25 28 31 31 28 25 16 15 10 9 10 6 10 3 6 7 9 10
30 23 17 26 27 31 31 31 31 31 30 29 27 25 24 25 24 21 18 18 18 17 16 18 19 23 26 28 32 28 26 21 14 7 13 10 5 4 1 6 7 9 11
34 30 29 27 30 34 34 32 32 33 31 29 28 27 26 25 24 22 21 20 20 18 15 16 17 21 25 27 31 33 30 24 18 14 12 9 9 2 0 4 8 9 11
40 38 29 19 39 41 37 35 34 32 33 32 29 29 26 24 21 20 21 21 21 19 16 15 16 17 23 27 29 33 31 25 22 18 9 10 8 7 5 5 8 11 11
36 35 29 28 20 49 44 38 34 35 34 33 33 33 30 29 28 25 24 20 18 21 21 18 17 17 18 27 30 32 32 29 27 21 13 10 9 10 7 7 11 12 14
38 24 23 18 31 46 54 40 32 32 30 36 38 35 33 31 31 26 26 16 17 20 19 19 16 16 17 22 29 29 30 31 31 28 20 14 16 18 14 11 12 14 14
30 31 22 25 24 49 46 32 40 42 34 44 42 34 32 34 29 30 27 23 21 19 15 14 15 16 17 19 27 28 24 27 31 30 24 14 8 13 13 17 12 17 19
27 36 29 15 18 26 28 35 46 50 46 51 43 40 29 32 29 26 24 30 29 21 17 13 11 11 13 22 25 25 28 27 27 30 29 23 22 19 20 19 13 14 19
19 20 17 12 16 19 42 27 29 30 39 59 47 44 35 35 30 25 24 27 27 23 21 22 22 21 19 21 29 30 34 33 32 30 30 27 27 26 21 21 22 17 18
17 15 14 14 15 16 21 21 25 24 28 45 49 51 35 32 30 27 29 30 29 27 26 26 26 28 34 26 30 27 34 39 38 34 32 31 26 24 24 23 22 23 21
12 16 14 17 14 14 8 14 21 23 29 37 40 40 36 34 31 32 31 31 32 32 31 32 28 27 25 33 36 29 35 38 36 36 35 34 35 35 33 33 31 28 28
19 16 21 19 16 13 9 14 12 16 21 28 34 39 37 34 34 33 37 38 39 37 35 32 30 27 24 17 24 26 29 27 27 31 36 41 41 38 39 37 35 37 37
19 18 24 22 18 13 5 8 13 7 11 19 22 37 36 33 30 32 42 48 40 39 30 28 29 25 18 19 24 25 25 23 27 32 30 33 37 42 41 40 42 39 37
21 21 25 23 20 19 11 11 15 18 14 17 20 18 23 24 23 19 17 25 32 33 28 27 23 19 19 17 17 15 11 12 22 28 32 34 36 35 38 37 36 39 37
26 25 26 23 23 21 15 8 8 12 15 16 20 17 16 15 17 17 15 19 20 21 24 23 22 22 20 19 19 17 8 7 8 4 6 10 23 32 33 31 30 31 34
26 25 28 26 23 20 17 11 5 3 9 16 19 18 14 13 12 12 12 16 19 21 21 24 25 24 23 23 24 27 27 23 9 8 1 4 2 10 18 28 20 16 16
20 22 24 23 22 20 20 18 11 7 12 13 15 14 14 13 11 14 17 21 23 23 28 27 24 27 26 25 26 26 26 30 32 27 14 14 4 9 11 15 24 15 15
18 22 25 22 20 17 22 22 12 6 13 13 14 13 11 13 10 11 11 13 16 21 23 22 20 18 17 19 19 22 24 26 31 34 29 16 8 10 10 5 2 7 9
Wind_Direction_850mb
175 174 163 162 159 157 156 151 147 142 137 136 136 138 141 142 138 132 131 128 131 129 133 134 129 132 135 127 131 126 122 120 119 125 114 112 117 112 117 125 124 121 118
163 170 165 162 162 162 160 156 153 151 146 142 137 134 134 134 135 130 133 133 133 128 130 132 124 124 127 130 129 126 118 109 116 118 117 116 120 112 117 121 121 123 122
168 170 165 168 164 163 162 161 161 158 154 151 142 137 136 140 140 140 138 135 136 129 127 126 130 124 128 132 132 127 126 127 124 123 115 113 121 105 115 118 122 123 127
173 168 171 171 168 168 167 167 168 163 161 157 151 148 147 147 142 127 134 138 131 132 128 131 128 130 132 136 136 131 131 123 124 117 115 114 113 100 107 117 123 120 129
175 174 174 175 175 175 174 173 173 170 166 162 153 152 151 144 138 133 117 138 132 137 134 133 139 133 137 142 141 139 133 124 122 111 107 97 95 97 99 128 123 134 134
172 178 183 186 181 183 180 180 179 179 176 171 166 162 160 158 158 151 146 143 133 132 140 136 136 139 141 145 146 140 136 132 145 115 112 100 84 85 99 126 131 137 140
167 179 193 196 191 189 187 184 186 185 187 181 173 171 169 164 160 161 164 160 152 143 135 138 138 148 148 153 154 149 138 135 134 129 120 104 82 81 109 127 131 139 143
164 176 190 199 203 198 193 189 190 190 192 193 187 178 176 179 172 167 168 162 155 155 150 147 143 156 159 166 166 162 155 146 139 140 125 114 97 94 117 150 159 158 155
166 179 191 198 207 209 205 197 193 194 192 197 198 193 181 179 179 169 167 162 157 159 159 161 154 157 167 172 182 169 161 164 154 142 133 132 105 82 141 166 179 184 174
177 186 217 205 213 216 216 211 200 198 198 196 199 198 192 181 176 175 174 167 166 167 168 165 164 163 168 179 182 186 177 174 180 192 157 141 128 74 161 205 200 210 205
195 194 206 213 223 224 221 219 211 203 203 203 201 199 196 190 182 178 175 170 167 173 170 170 167 173 173 181 187 190 186 181 180 166 170 181 190 165 17 221 223 223 228
201 196 203 211 255 227 221 221 219 213 207 206 205 199 196 197 192 185 179 180 173 171 173 177 168 173 178 183 188 190 189 194 191 189 182 195 203 247 229 241 244 238 246
203 205 211 240 329 233 219 215 223 218 213 207 204 203 196 196 191 189 182 184 191 184 180 180 181 178 183 184 190 195 198 203 211 209 225 234 234 234 255 244 249 242 246
213 212 225 241 267 237 218 209 209 233 225 218 209 205 200 197 203 201 200 198 199 195 191 188 191 196 194 191 191 192 199 204 213 224 233 236 260 247 241 244 255 248 246
230 222 240 304 280 229 205 204 212 215 231 230 218 208 208 203 205 207 212 222 207 195 198 207 201 207 196 182 186 186 193 205 208 215 233 258 260 248 267 239 255 263 246
261 238 259 289 58 174 220 218 211 221 231 228 217 214 224 213 212 221 228 211 208 209 205 211 218 231 233 227 215 204 208 211 212 223 237 239 251 245 251 244 261 279 256
214 223 247 179 115 134 193 205 225 241 252 223 225 229 231 229 224 222 209 206 217 224 232 234 246 257 256 251 238 245 217 210 215 223 237 243 244 244 253 251 259 276 280
217 222 191 167 180 173 181 214 235 237 234 227 240 238 238 216 225 219 220 220 229 234 235 240 255 271 259 250 232 240 225 220 230 239 244 245 248 242 253 263 262 275 280
175 184 170 157 159 176 209 252 259 252 239 222 227 223 211 220 226 231 236 232 232 233 240 253 264 271 263 259 237 248 240 238 237 241 244 253 253 255 251 250 253 266 270
162 176 171 165 171 160 240 282 282 267 236 216 211 215 212 222 238 242 239 237 240 243 247 259 265 260 259 241 234 246 241 241 244 251 256 258 255 252 253 252 256 267 261
168 182 175 169 170 156 143 83 51 26 205 208 215 217 213 228 235 245 249 242 237 242 253 260 244 248 249 239 243 252 250 252 255 252 254 250 247 248 255 261 257 258 259
181 183 178 170 165 161 148 94 74 65 110 172 194 202 213 219 226 227 216 208 226 240 241 239 242 247 240 236 246 261 266 247 249 251 252 250 251 247 249 256 256 255 259
183 182 181 178 173 174 180 131 88 86 96 113 168 189 191 220 218 205 201 209 213 219 225 231 235 237 238 246 248 243 244 217 190 206 233 255 246 246 248 254 260 259 259
191 181 179 175 175 178 186 173 221 175 140 143 149 162 183 189 197 215 209 224 227 227 228 238 240 240 241 234 246 249 244 234 225 217 250 68 319 246 241 245 249 243 218
199 189 188 179 179 188 199 196 218 231 175 172 176 191 209 217 212 254 246 246 249 245 236 236 243 236 241 245 247 246 239 235 237 237 238 255 203 219 232 245 228 250 228
190 204 210 199 191 200 210 220 244 208 193 195 186 192 206 215 264 264 248 246 249 240 235 233 223 224 227 237 245 246 238 235 235 223 211 201 195 131 137 160 198 201 210